User: anonymous   Login
Location: Kawakawa
(35.3830°S, 174.0670°E)
Time: 22:53:32
(UTC+13:00)
Language:

Resurs 1-3 - Orbit

View from above orbital plane
View from above orbital plane
View from above satellite
View from above satellite

Ground track
Ground track

The orbit data is extracted from the following two-line orbital elements,

1 23342U 94074A   19078.55678682 +.00000031 +00000-0 +11139-4 0  9993
2 23342 097.9938 126.6944 0001419 118.4704 241.6650 14.79380245312185
Epoch (UTC): 19 March 2019 13:21:46
Eccentricity: 0.0001419
inclination: 97.9938°
perigee height: 630 km
apogee height: 632 km
right ascension of ascending node: 126.6944°
argument of perigee: 118.4704°
revolutions per day: 14.79380245
mean anomaly at epoch: 241.6650°
orbit number at epoch: 31218

The dashed part of the orbit path shows where the satellite is in the earth's shadow,  

DLR